Lexington Weather

Lexington, Massachusetts, USA

56°F
12/4/2020 1:11pm 
  • Lexington Conditions: Partly cloudy
  • Temperature: 55.9°F / 13.3°CWarmer 1.9°F than last hour.
  • Dew Point: 36.0°FIncreased 1.8°Fsince last hour.
  • Relative Humidity: 47
  • Wind: Wind from WSW WSW 2 mph, 10-min avg: 4 mph, gust: 11 mph
  • Barometer: 29.90 inFalling 0.02  inHg/hr Falling Slowly
  • Visibility: 10 miles
  • Rain Today: 0.00 in
  •   
Southeast Middlesex County - Winter Storm Watch
 - SEE ALL NEARBY ALERTS -

Regional Weather Roundup
for Boston / Norton, MA

        
000
ASUS41 KBOX 012305
RWRBOX

REGIONAL WEATHER ROUNDUP
NATIONAL WEATHER SERVICE BOSTON/NORTON MA
600 PM EST TUE DEC 01 2020

NOTE:  "FAIR" INDICATES FEW OR NO CLOUDS BELOW 12,000 FEET WITH NO 
SIGNIFICANT WEATHER AND/OR OBSTRUCTIONS TO VISIBILITY.

MAZALL-020000-
EASTERN MASSACHUSETTS
  
CITY           SKY/WX    TMP DP  RH WIND       PRES   REMARKS
BOSTON         PTCLDY    49  33  54 SW21G29   29.60R                  
BEVERLY        PTCLDY    51  31  46 S13       29.58R                  
LAWRENCE       PTCLDY    52  29  41 S15G25    29.59R                  
BEDFORD        PTCLDY    50  33  52 SW15G24   29.57R                  
BLUE HILL        N/A     47  33  58 S24G31    29.58R                  
NORWOOD        PTCLDY    51  34  52 S10G22    29.60R                  
MARSHFIELD     CLOUDY    52  41  66 SW6G13    29.62R                  
PLYMOUTH       CLOUDY    50  35  56 SW17G24   29.63R                  
TAUNTON        CLEAR     51  35  54 SW12G21   29.62R                  
NEW BEDFORD    MOCLDY    51  35  54 SW16G26   29.64R                  
$$

MAZALL-020000-
CAPE COD AND THE ISLANDS
  
CITY           SKY/WX    TMP DP  RH WIND       PRES   REMARKS
FALMOUTH       CLOUDY    50  37  62 SW23G31   29.65R                  
HYANNIS        CLOUDY    52  40  63 SW18G29   29.65R                  
CHATHAM        CLOUDY    52  42  69 SW13G25   29.68R                  
PROVINCETOWN   CLOUDY    51  44  77 SW17G28   29.65R                  
NANTUCKET      CLOUDY    54  44  69 SW22      29.69R                  
MARTHAS VNYRD  CLOUDY    52  38  58 SW18G30   29.68R                  
$$
 
MAZALL-020000-
CENTRAL AND WESTERN MASSACHUSETTS
  
CITY           SKY/WX    TMP DP  RH WIND       PRES   REMARKS
WORCESTER      MOCLDY    46  32  58 S14       29.57R                  
FITCHBURG      PTCLDY    50  32  50 S16       29.57R                  
ORANGE         MOCLDY    47  34  60 S18       29.55R                  
SPRINGFIELD    NOT AVBL                                               
WESTFIELD      MOCLDY    46  33  60 SW16G23   29.57R                  
NORTH ADAMS    MOCLDY    45  32  60 W13G21    29.53R                  
PITTSFIELD     CLOUDY    40  31  70 SW14      29.53R                  
$$
 
RIZALL-020000-
RHODE ISLAND
  
CITY           SKY/WX    TMP DP  RH WIND       PRES   REMARKS
PROVIDENCE     PTCLDY    48  36  63 SW12      29.64R                  
NEWPORT        MOCLDY    49  37  63 SW10G21   29.64R                  
BLOCK ISLAND   MOCLDY    47  38  71 SW26G35   29.66R                  
SMITHFIELD     PTCLDY    47  36  65 SW8G18    29.61R                  
WESTERLY       CLOUDY    49  35  58 SW16G25   29.64R                  
$$
 
CTZALL-020000-
CONNECTICUT
  
CITY           SKY/WX    TMP DP  RH WIND       PRES   REMARKS
BRADLEY INTL   MOCLDY    47  32  56 SW17G26   29.59R                  
HARTFORD       MOCLDY    48  30  49 SW13G25   29.62R                  
BRIDGEPORT     MOCLDY    46  28  49 W15G24    29.66R                  
DANBURY        MOCLDY    42  28  57 SW9       29.65R                  
GROTON         MOCLDY    48  36  63 SW21G31   29.64R                  
NEW HAVEN      MOCLDY    47  31  53 W18G29    29.66R                  
CHESTER        MOCLDY   N/A N/A N/A SW10G21   29.64R                  
MERIDEN        CLOUDY    45  31  58 MISG      29.64R                  
WILLIMANTIC    MOCLDY    47  33  58 SW10G26   29.61R                  
OXFORD         CLOUDY    41  30  65 SW9G20    29.64R                  
$$

MEZ002-015-021-024-NHZ003-005-008-011-012-014-VTZ005-008-020000-
NORTHERN NEW ENGLAND
  
CITY           SKY/WX    TMP DP  RH WIND       PRES   REMARKS
PORTLAND ME    CLOUDY    51  45  79 S13G23    29.55R                  
BANGOR ME      LGT RAIN  55  52  89 SE14      29.61S                  
CONCORD NH     PTCLDY    50  32  50 S15       29.53R                  
MANCHESTER NH  PTCLDY    52  31  44 S15G22    29.53R                  
NASHUA NH      MOCLDY    51  33  50 S3G15     29.56R                  
PORTSMOUTH NH  PTCLDY    51  32  48 S15G21    29.54                   
JAFFREY NH     CLEAR     47  30  51 S13G22    29.53R                  
KEENE NH       MOCLDY    46  36  68 S13G21    29.53R                  
BURLINGTON VT  MOCLDY    48  35  60 S13G22    29.42R                  
MT. WASHINGTON FOG       27  27 100 S37G46      N/A  VSB 1/16WCI   9  
$$

NYZ052-076-020000-
EASTERN NEW YORK
  
CITY           SKY/WX    TMP DP  RH WIND       PRES   REMARKS
ALBANY         CLOUDY    42  30  62 SW14G20   29.54R                  
NEW YORK CITY  CLOUDY    47  26  44 W24G31    29.68R                  
$$
 
ANZALL-020000-
MARINE OBSERVATIONS
  
STATION/POSITION TIME  TEMP    WIND        PRES    VSBY  WAVE
                       AIR SEA DIR/SP/G                  HT/PER
                 (UTC) (F)     (DEG/KT/KT) (MB)    (MI)  (FT/S)
BOSTON BUOY      2240   52 50  200/ 25/ 31 1003.0R
BUZZARDS BAY     NOT AVBL
NANTUCKET SOUND  2240      51  220/ 21/ 27   N/A
MASS BAY-STELLWA NOT AVBL
ISLE OF SHOALS   2200   53     190/ 24/ 26  999.8R
S OF BLOCK IS    2226      57                N/A          15/13
$$

......................KEY.........................
  SKY/WX - SKY CONDITION/PRESENT WEATHER
  TMP    - TEMPERATURE IN FAHRENHEIT
  DWPT   - DEWPOINT IN FAHRENHEIT
  RH     - RELATIVE HUMIDITY IN PERCENT
  WIND   - DIRECTION AND SPEED IN MPH
  PRES   - MEAN SEA LEVEL PRESSURE IN INCHES OF HG
  WCI    - WIND CHILL INDEX
  VSB    - VISIBILITY IN MILES
  HX     - HEAT INDEX
  TC     - TEMPERATURE IN CELSIUS
  VRB    - VARIABLE WIND DIRECTION
  N/A    - NOT AVAILABLE
  
      

Other recent Regional Weather Roundups

Fri Dec 4, 1:04pm

Fri Dec 4, 12:04pm

Fri Dec 4, 11:04am

Fri Dec 4, 10:05am

Fri Dec 4, 9:04am

Fri Dec 4, 8:04am

Fri Dec 4, 7:04am

Fri Dec 4, 6:04am

Fri Dec 4, 5:04am

Fri Dec 4, 4:04am

Fri Dec 4, 3:04am

Fri Dec 4, 2:04am

Fri Dec 4, 1:04am

Fri Dec 4, 12:04am

Thu Dec 3, 11:04pm

Thu Dec 3, 10:04pm

Thu Dec 3, 9:04pm

Thu Dec 3, 8:04pm

Thu Dec 3, 7:04pm

Thu Dec 3, 6:04pm

Thu Dec 3, 5:04pm

Thu Dec 3, 4:05pm

Thu Dec 3, 3:04pm

Thu Dec 3, 2:04pm

Thu Dec 3, 1:04pm

Thu Dec 3, 12:04pm

Thu Dec 3, 11:04am

Thu Dec 3, 10:04am

Thu Dec 3, 9:04am

Thu Dec 3, 8:04am

Thu Dec 3, 7:04am

Thu Dec 3, 6:04am

Thu Dec 3, 5:04am

Thu Dec 3, 4:04am

Thu Dec 3, 3:04am

Thu Dec 3, 2:04am

Thu Dec 3, 1:04am

Thu Dec 3, 12:04am

Wed Dec 2, 11:04pm

Wed Dec 2, 10:04pm

Wed Dec 2, 9:04pm

Wed Dec 2, 8:04pm

Wed Dec 2, 7:04pm

Wed Dec 2, 6:05pm

Wed Dec 2, 5:04pm

Wed Dec 2, 4:05pm

Wed Dec 2, 3:05pm

Wed Dec 2, 2:04pm

Wed Dec 2, 1:04pm

Wed Dec 2, 12:04pm

Wed Dec 2, 11:04am

Wed Dec 2, 10:04am

Wed Dec 2, 9:05am

Wed Dec 2, 8:04am

Wed Dec 2, 7:04am

Wed Dec 2, 6:04am

Wed Dec 2, 5:04am

Wed Dec 2, 4:04am

Wed Dec 2, 3:04am

Wed Dec 2, 2:04am

Wed Dec 2, 1:04am

Wed Dec 2, 12:04am

Tue Dec 1, 11:04pm

Tue Dec 1, 10:04pm

Tue Dec 1, 9:04pm

Tue Dec 1, 8:04pm

Tue Dec 1, 7:04pm

Tue Dec 1, 5:04pm

Tue Dec 1, 4:05pm

Tue Dec 1, 3:04pm

Tue Dec 1, 2:04pm

Tue Dec 1, 12:04pm

Tue Dec 1, 11:04am

Tue Dec 1, 10:04am

Tue Dec 1, 9:04am

Tue Dec 1, 8:04am

Tue Dec 1, 7:04am

Tue Dec 1, 6:04am

Tue Dec 1, 5:05am

Tue Dec 1, 4:04am

Tue Dec 1, 3:04am

Tue Dec 1, 2:04am

Tue Dec 1, 1:04am

Tue Dec 1, 12:04am

Mon Nov 30, 11:04pm

Mon Nov 30, 10:04pm

Mon Nov 30, 9:04pm

Mon Nov 30, 8:04pm

Mon Nov 30, 7:05pm

Mon Nov 30, 6:04pm

Mon Nov 30, 5:05pm

Mon Nov 30, 4:04pm

Mon Nov 30, 3:05pm

Mon Nov 30, 2:05pm

Mon Nov 30, 1:04pm

Mon Nov 30, 12:05pm

Mon Nov 30, 11:04am

Mon Nov 30, 10:04am

Mon Nov 30, 9:04am

Mon Nov 30, 8:04am

Mon Nov 30, 7:05am

Mon Nov 30, 6:04am

Mon Nov 30, 5:05am

Mon Nov 30, 4:04am

Mon Nov 30, 3:04am

Mon Nov 30, 2:04am

Mon Nov 30, 1:04am

Mon Nov 30, 12:04am

Sun Nov 29, 11:04pm

Sun Nov 29, 10:04pm

Sun Nov 29, 9:04pm

Sun Nov 29, 8:04pm

Sun Nov 29, 7:04pm

Sun Nov 29, 6:04pm

Sun Nov 29, 5:04pm

Sun Nov 29, 4:05pm

Sun Nov 29, 3:04pm

Sun Nov 29, 2:04pm

Sun Nov 29, 1:04pm

Sun Nov 29, 12:04pm

Sun Nov 29, 11:04am

Sun Nov 29, 10:04am

Sun Nov 29, 9:04am

Sun Nov 29, 8:05am

Sun Nov 29, 7:04am

Sun Nov 29, 6:04am

Sun Nov 29, 5:04am

Sun Nov 29, 4:04am

Sun Nov 29, 3:04am

Sun Nov 29, 2:05am

Sun Nov 29, 1:04am

Sun Nov 29, 12:04am

Sat Nov 28, 11:04pm

Sat Nov 28, 10:04pm

Sat Nov 28, 9:04pm

Sat Nov 28, 8:04pm

Sat Nov 28, 7:04pm

Sat Nov 28, 6:04pm

Sat Nov 28, 5:04pm

Sat Nov 28, 4:04pm

Sat Nov 28, 3:04pm

Sat Nov 28, 2:04pm

Sat Nov 28, 1:04pm

Sat Nov 28, 12:04pm

Sat Nov 28, 11:04am

Sat Nov 28, 10:04am

Sat Nov 28, 9:04am

Sat Nov 28, 8:04am

Sat Nov 28, 7:04am

Sat Nov 28, 6:04am

Sat Nov 28, 5:04am

Sat Nov 28, 4:04am

Sat Nov 28, 3:05am

Sat Nov 28, 2:04am

Sat Nov 28, 1:04am

Sat Nov 28, 12:04am

Fri Nov 27, 11:05pm

Fri Nov 27, 10:04pm

Fri Nov 27, 9:04pm

Fri Nov 27, 8:04pm

Fri Nov 27, 7:04pm

Fri Nov 27, 6:04pm

Fri Nov 27, 5:04pm

Fri Nov 27, 4:05pm

Fri Nov 27, 3:05pm

Fri Nov 27, 2:05pm

Meta data:

ID: 1fd75028-159b-4937-988d-2f718836a5e5
Link: https://api.weather.gov/products/1fd75028-159b-4937-988d-2f718836a5e5